{"data":{"norad_id":60533,"intl_designator":"2024-149BT","name":"LEMUR-2-STELLA","alt_names":[],"object_type":"PAYLOAD","status":"ACTIVE","operator":null,"country":"US","launch_date":"2024-08-16","launch_site_code":"AFWTR","launch_vehicle":null,"mission":null,"orbit_class":"UNKNOWN","rcs_meters":null,"size_class":null,"mass_kg":null,"dimensions":null,"purposes":["earth_obs"],"wikipedia_slug":null,"has_3d_model":false,"image_url":null,"decayed_at":null,"tle_current":{"epoch":"2026-09-19T11:24:02.146176Z","epoch_age_seconds":106881,"freshness":"FRESH","line1":"1 60533U 24149BT  26262.47502484  .00007165  00000+0  40315-3 0  9993","line2":"2 60533  97.6682 345.4386 0001720  95.4235 264.7192 15.13563815114755","mean_motion":15.13563815,"eccentricity":0.000172,"inclination_deg":97.6682,"raan_deg":345.4386,"arg_perigee_deg":95.4235,"mean_anomaly_deg":264.7192,"bstar":0.00040315,"rev_number":11475,"period_min":95.139695183582,"perigee_km":524.15474372862,"apogee_km":526.52954055352,"semimajor_km":6903.4791421411,"source":"CELESTRAK","updated_at":"2026-09-20T09:00:34.871240Z"}}}